Location: Jackson Park
(37.2862°N, 79.9123°W)
Time: 20:36:30
(UTC+00:00)

Transit 4A - Pass Details

Date: 13 May 2026
Orbit: 860 x 980 km, 66.8° (Epoch: 9 June)

Event Time Altitude Azimuth Distance (km) Brightness Sun altitude
Rises 13:31:57 0° 210° (SSW) 3,514 10.7 37.9°
Reaches altitude 10° 13:34:24 10° 211° (SSW) 2,593 10.1 38.3°
Maximum altitude 13:40:28 79° 298° (WNW) 956 8.5 39.5°
Drops below altitude 10° 13:46:45 10° 25° (NNE) 2,690 10.6 40.8°
Sets 13:49:21 0° 27° (NNE) 3,654 11.2 41.3°
